QPF
0.00 0.00 0.00 0.00 0.00 0.01 0.01 0.01 0.02 0.03 0.06 0.08 0.12 0.16 0.23 0.28 0.30 0.30 0.29 0.27 0.26 0.28 0.32 0.37 0.36 0.32 0.27 0.24 0.21 0.17 0.14 0.11 0.08 0.07 0.07 0.06 0.05 0.04 0.02 0.02 0.01 0.01 0.01
0.00 0.00 0.00 0.00 0.00 0.00 0.01 0.02 0.03 0.03 0.07 0.15 0.24 0.34 0.41 0.46 0.53 0.50 0.41 0.36 0.37 0.43 0.48 0.49 0.46 0.40 0.32 0.24 0.19 0.17 0.15 0.10 0.07 0.07 0.06 0.06 0.05 0.03 0.02 0.01 0.01 0.00 0.00
0.00 0.00 0.00 0.00 0.00 0.00 0.01 0.03 0.03 0.04 0.09 0.21 0.31 0.43 0.53 0.59 0.60 0.55 0.46 0.41 0.43 0.46 0.45 0.42 0.41 0.37 0.30 0.23 0.19 0.15 0.12 0.10 0.09 0.08 0.09 0.08 0.05 0.02 0.02 0.01 0.01 0.01 0.00
0.00 0.00 0.00 0.00 0.00 0.00 0.01 0.02 0.03 0.04 0.09 0.18 0.29 0.40 0.54 0.57 0.55 0.48 0.42 0.39 0.39 0.35 0.32 0.30 0.28 0.25 0.22 0.20 0.17 0.15 0.13 0.12 0.11 0.10 0.08 0.06 0.04 0.03 0.03 0.02 0.02 0.01 0.01
0.00 0.00 0.00 0.00 0.00 0.00 0.01 0.02 0.03 0.04 0.07 0.17 0.29 0.38 0.48 0.50 0.47 0.43 0.36 0.35 0.33 0.29 0.27 0.23 0.17 0.13 0.11 0.10 0.08 0.08 0.09 0.09 0.07 0.05 0.04 0.03 0.02 0.01 0.01 0.01 0.01 0.00 0.00
0.01 0.01 0.01 0.01 0.01 0.01 0.01 0.02 0.03 0.05 0.09 0.15 0.22 0.25 0.29 0.32 0.34 0.33 0.31 0.33 0.30 0.25 0.19 0.13 0.09 0.07 0.06 0.05 0.05 0.05 0.05 0.04 0.03 0.02 0.02 0.01 0.01 0.01 0.00 0.00 0.00 0.00 0.00
0.01 0.01 0.01 0.01 0.01 0.02 0.02 0.03 0.04 0.08 0.10 0.13 0.15 0.18 0.19 0.22 0.25 0.28 0.28 0.24 0.18 0.13 0.08 0.06 0.05 0.04 0.04 0.04 0.03 0.03 0.03 0.02 0.02 0.01 0.01 0.01 0.01 0.01 0.00 0.00 0.00 0.00 0.00
0.02 0.02 0.02 0.02 0.02 0.03 0.03 0.04 0.06 0.09 0.10 0.10 0.11 0.12 0.13 0.15 0.15 0.15 0.12 0.10 0.07 0.05 0.04 0.03 0.02 0.02 0.02 0.02 0.02 0.02 0.02 0.02 0.02 0.02 0.02 0.01 0.01 0.01 0.01 0.01 0.01 0.00 0.00
0.03 0.03 0.03 0.02 0.02 0.03 0.04 0.04 0.05 0.05 0.06 0.06 0.07 0.07 0.06 0.05 0.05 0.04 0.03 0.03 0.02 0.02 0.01 0.01 0.01 0.01 0.01 0.01 0.01 0.02 0.02 0.02 0.02 0.01 0.01 0.01 0.01 0.01 0.01 0.01 0.00 0.00 0.00
0.03 0.03 0.03 0.02 0.02 0.02 0.03 0.03 0.03 0.03 0.03 0.03 0.03 0.04 0.03 0.03 0.03 0.02 0.02 0.02 0.01 0.01 0.01 0.01 0.01 0.01 0.01 0.01 0.01 0.01 0.01 0.01 0.01 0.01 0.01 0.01 0.00 0.00 0.00 0.00 0.00 0.00 0.00
0.03 0.02 0.03 0.02 0.02 0.02 0.02 0.02 0.02 0.01 0.01 0.02 0.02 0.02 0.02 0.02 0.02 0.01 0.01 0.01 0.01 0.01 0.01 0.01 0.01 0.01 0.01 0.01 0.01 0.01 0.01 0.01 0.01 0.01 0.01 0.01 0.01 0.00 0.00 0.00 0.01 0.01 0.01
0.03 0.02 0.02 0.01 0.01 0.01 0.01 0.00 0.00 0.00 0.00 0.00 0.00 0.00 0.00 0.01 0.01 0.01 0.01 0.01 0.01 0.00 0.00 0.00 0.00 0.01 0.01 0.01 0.01 0.01 0.01 0.01 0.01 0.01 0.01 0.01 0.01 0.01 0.01 0.01 0.01 0.01 0.01
0.03 0.02 0.01 0.01 0.01 0.00 0.00 0.00 0.00 0.00 0.00 0.00 0.00 0.00 0.00 0.00 0.01 0.01 0.00 0.00 0.00 0.01 0.01 0.01 0.02 0.02 0.01 0.01 0.01 0.01 0.01 0.01 0.01 0.01 0.01 0.01 0.01 0.01 0.01 0.01 0.01 0.01 0.01
0.02 0.02 0.01 0.01 0.01 0.00 0.00 0.00 0.00 0.00 0.00 0.00 0.00 0.00 0.00 0.00 0.00 0.00 0.01 0.01 0.01 0.01 0.02 0.02 0.02 0.01 0.01 0.01 0.01 0.01 0.00 0.00 0.00 0.00 0.00 0.00 0.00 0.01 0.01 0.01 0.02 0.02 0.02
0.02 0.02 0.01 0.01 0.01 0.00 0.00 0.00 0.00 0.00 0.00 0.00 0.00 0.01 0.01 0.01 0.01 0.01 0.02 0.02 0.02 0.02 0.02 0.01 0.01 0.01 0.01 0.01 0.00 0.00 0.00 0.00 0.00 0.00 0.00 0.00 0.00 0.01 0.01 0.01 0.02 0.04 0.04
0.02 0.01 0.01 0.01 0.01 0.01 0.00 0.00 0.00 0.01 0.01 0.00 0.01 0.01 0.01 0.02 0.02 0.02 0.02 0.02 0.01 0.01 0.01 0.01 0.00 0.00 0.00 0.00 0.00 0.00 0.00 0.00 0.00 0.00 0.00 0.00 0.00 0.00 0.00 0.00 0.01 0.02 0.04
0.02 0.02 0.01 0.01 0.01 0.01 0.01 0.01 0.01 0.01 0.01 0.01 0.02 0.02 0.02 0.02 0.02 0.02 0.01 0.01 0.01 0.01 0.01 0.01 0.00 0.01 0.00 0.00 0.00 0.00 0.00 0.00 0.01 0.01 0.01 0.01 0.01 0.01 0.02 0.01 0.01 0.01 0.02
0.04 0.03 0.02 0.01 0.01 0.01 0.01 0.01 0.01 0.01 0.01 0.02 0.02 0.02 0.01 0.01 0.01 0.01 0.01 0.01 0.01 0.01 0.00 0.00 0.00 0.01 0.00 0.00 0.00 0.00 0.00 0.01 0.01 0.01 0.01 0.02 0.02 0.02 0.01 0.01 0.02 0.03 0.03
0.04 0.04 0.03 0.03 0.03 0.03 0.02 0.02 0.02 0.02 0.02 0.02 0.02 0.01 0.01 0.01 0.01 0.01 0.01 0.01 0.01 0.01 0.00 0.00 0.01 0.01 0.01 0.00 0.00 0.00 0.00 0.01 0.01 0.01 0.01 0.02 0.02 0.01 0.00 0.01 0.03 0.03 0.04
0.04 0.03 0.02 0.02 0.01 0.01 0.01 0.01 0.01 0.02 0.01 0.01 0.01 0.01 0.01 0.00 0.00 0.01 0.01 0.01 0.01 0.01 0.00 0.00 0.01 0.01 0.01 0.00 0.00 0.00 0.00 0.01 0.01 0.01 0.02 0.02 0.01 0.00 0.00 0.01 0.03 0.04 0.03
0.02 0.02 0.01 0.01 0.01 0.01 0.01 0.01 0.01 0.01 0.01 0.01 0.00 0.00 0.00 0.00 0.00 0.01 0.01 0.01 0.00 0.01 0.01 0.01 0.01 0.01 0.01 0.00 0.00 0.00 0.00 0.00 0.01 0.01 0.02 0.02 0.00 0.00 0.00 0.01 0.03 0.03 0.01
0.01 0.01 0.01 0.01 0.01 0.01 0.01 0.01 0.01 0.01 0.01 0.01 0.00 0.00 0.00 0.00 0.00 0.01 0.01 0.01 0.01 0.01 0.01 0.01 0.01 0.01 0.01 0.01 0.00 0.00 0.00 0.00 0.01 0.02 0.02 0.02 0.00 0.00 0.00 0.01 0.01 0.01 0.02
0.01 0.01 0.01 0.01 0.01 0.01 0.01 0.01 0.01 0.01 0.01 0.01 0.01 0.01 0.01 0.01 0.01 0.01 0.01 0.01 0.01 0.01 0.01 0.01 0.01 0.01 0.01 0.01 0.00 0.00 0.00 0.00 0.01 0.02 0.01 0.01 0.00 0.01 0.03 0.02 0.01 0.02 0.04
0.01 0.01 0.01 0.01 0.01 0.01 0.01 0.01 0.01 0.02 0.02 0.02 0.02 0.02 0.02 0.02 0.01 0.01 0.01 0.01 0.02 0.02 0.02 0.01 0.01 0.01 0.01 0.01 0.00 0.00 0.00 0.01 0.01 0.02 0.02 0.02 0.02 0.02 0.03 0.04 0.04 0.05 0.04
0.01 0.01 0.01 0.01 0.01 0.01 0.01 0.01 0.01 0.01 0.02 0.02 0.01 0.02 0.01 0.01 0.01 0.01 0.01 0.01 0.01 0.01 0.01 0.02 0.02 0.02 0.01 0.01 0.00 0.01 0.01 0.01 0.01 0.02 0.03 0.04 0.04 0.04 0.04 0.05 0.05 0.05 0.04
0.01 0.01 0.01 0.01 0.01 0.01 0.00 0.00 0.01 0.01 0.02 0.02 0.01 0.01 0.01 0.01 0.01 0.02 0.02 0.01 0.00 0.00 0.00 0.00 0.01 0.01 0.01 0.00 0.01 0.01 0.01 0.01 0.01 0.02 0.04 0.04 0.04 0.04 0.03 0.03 0.03 0.03 0.03
MSLP
1006.13 1006.12 1006.17 1006.30 1006.54 1006.93 1007.49 1008.21 1009.09 1010.07 1011.10 1012.12 1013.07 1013.93 1014.67 1015.30 1015.83 1016.31 1016.76 1017.19 1017.62 1018.04 1018.44 1018.81 1019.13 1019.41 1019.64 1019.84 1020.01 1020.17 1020.30 1020.41 1020.50 1020.55 1020.56 1020.52 1020.45 1020.36 1020.27 1020.19 1020.14 1020.12 1020.11
1006.58 1006.47 1006.40 1006.39 1006.49 1006.75 1007.21 1007.86 1008.71 1009.69 1010.74 1011.80 1012.79 1013.69 1014.45 1015.09 1015.63 1016.11 1016.55 1016.98 1017.43 1017.88 1018.33 1018.75 1019.14 1019.48 1019.77 1020.01 1020.20 1020.37 1020.51 1020.61 1020.69 1020.72 1020.71 1020.66 1020.56 1020.44 1020.31 1020.19 1020.09 1020.03 1019.99
1007.44 1007.27 1007.09 1006.96 1006.92 1007.03 1007.35 1007.90 1008.65 1009.58 1010.59 1011.63 1012.62 1013.51 1014.26 1014.89 1015.41 1015.86 1016.29 1016.72 1017.17 1017.65 1018.14 1018.61 1019.06 1019.46 1019.79 1020.07 1020.29 1020.47 1020.61 1020.71 1020.78 1020.79 1020.76 1020.68 1020.55 1020.40 1020.22 1020.06 1019.92 1019.82 1019.76
1008.70 1008.49 1008.24 1007.99 1007.82 1007.78 1007.95 1008.35 1008.98 1009.80 1010.72 1011.69 1012.62 1013.46 1014.17 1014.76 1015.25 1015.68 1016.09 1016.51 1016.97 1017.47 1017.99 1018.51 1019.00 1019.44 1019.82 1020.13 1020.37 1020.56 1020.70 1020.79 1020.84 1020.84 1020.78 1020.67 1020.51 1020.31 1020.09 1019.88 1019.69 1019.54 1019.45
1010.23 1010.02 1009.73 1009.39 1009.10 1008.93 1008.94 1009.18 1009.66 1010.33 1011.13 1011.99 1012.83 1013.59 1014.25 1014.79 1015.24 1015.65 1016.05 1016.47 1016.94 1017.46 1018.00 1018.55 1019.07 1019.54 1019.94 1020.26 1020.52 1020.70 1020.83 1020.91 1020.94 1020.92 1020.84 1020.69 1020.49 1020.25 1019.98 1019.71 1019.46 1019.27 1019.13
1011.87 1011.70 1011.38 1011.00 1010.62 1010.33 1010.20 1010.29 1010.61 1011.12 1011.78 1012.51 1013.24 1013.92 1014.51 1015.01 1015.44 1015.83 1016.22 1016.65 1017.14 1017.67 1018.23 1018.79 1019.33 1019.81 1020.21 1020.53 1020.77 1020.94 1021.05 1021.10 1021.11 1021.06 1020.94 1020.77 1020.53 1020.25 1019.93 1019.60 1019.29 1019.04 1018.85
1013.45 1013.32 1013.03 1012.63 1012.20 1011.82 1011.59 1011.54 1011.71 1012.08 1012.60 1013.20 1013.83 1014.43 1014.96 1015.43 1015.84 1016.23 1016.64 1017.08 1017.58 1018.12 1018.69 1019.25 1019.78 1020.24 1020.61 1020.90 1021.11 1021.25 1021.32 1021.35 1021.32 1021.24 1021.10 1020.90 1020.63 1020.31 1019.95 1019.57 1019.21 1018.89 1018.64
1014.80 1014.75 1014.51 1014.12 1013.68 1013.26 1012.96 1012.82 1012.88 1013.13 1013.53 1014.03 1014.57 1015.10 1015.59 1016.04 1016.45 1016.85 1017.26 1017.72 1018.22 1018.77 1019.32 1019.86 1020.36 1020.78 1021.11 1021.35 1021.51 1021.59 1021.62 1021.60 1021.54 1021.44 1021.28 1021.06 1020.77 1020.43 1020.04 1019.62 1019.22 1018.84 1018.53
1015.85 1015.88 1015.70 1015.37 1014.95 1014.54 1014.22 1014.03 1014.04 1014.22 1014.54 1014.96 1015.44 1015.92 1016.38 1016.81 1017.21 1017.62 1018.04 1018.51 1019.00 1019.53 1020.06 1020.56 1021.00 1021.36 1021.62 1021.79 1021.88 1021.90 1021.87 1021.81 1021.72 1021.59 1021.42 1021.20 1020.91 1020.57 1020.17 1019.74 1019.31 1018.90 1018.54
1016.57 1016.69 1016.60 1016.34 1015.99 1015.63 1015.34 1015.17 1015.16 1015.31 1015.59 1015.97 1016.41 1016.85 1017.28 1017.70 1018.09 1018.49 1018.91 1019.35 1019.83 1020.32 1020.80 1021.23 1021.61 1021.89 1022.08 1022.17 1022.18 1022.13 1022.05 1021.94 1021.82 1021.67 1021.50 1021.29 1021.03 1020.71 1020.34 1019.92 1019.48 1019.05 1018.65
1017.04 1017.25 1017.25 1017.09 1016.83 1016.56 1016.34 1016.23 1016.26 1016.42 1016.70 1017.06 1017.47 1017.88 1018.29 1018.67 1019.03 1019.40 1019.78 1020.18 1020.61 1021.04 1021.46 1021.82 1022.12 1022.32 1022.42 1022.44 1022.38 1022.27 1022.13 1021.98 1021.83 1021.68 1021.53 1021.34 1021.12 1020.84 1020.50 1020.12 1019.70 1019.26 1018.84
1017.39 1017.67 1017.76 1017.71 1017.57 1017.41 1017.29 1017.27 1017.36 1017.56 1017.86 1018.22 1018.60 1018.98 1019.34 1019.66 1019.98 1020.28 1020.60 1020.94 1021.29 1021.65 1021.99 1022.29 1022.51 1022.64 1022.67 1022.62 1022.49 1022.33 1022.14 1021.96 1021.79 1021.64 1021.50 1021.35 1021.16 1020.93 1020.65 1020.30 1019.91 1019.49 1019.06
1017.74 1018.08 1018.26 1018.30 1018.27 1018.23 1018.23 1018.30 1018.47 1018.72 1019.05 1019.40 1019.76 1020.09 1020.38 1020.64 1020.87 1021.10 1021.33 1021.58 1021.86 1022.14 1022.41 1022.63 1022.79 1022.86 1022.84 1022.74 1022.57 1022.36 1022.13 1021.92 1021.74 1021.59 1021.45 1021.32 1021.17 1020.99 1020.75 1020.45 1020.09 1019.68 1019.24
1018.18 1018.58 1018.82 1018.94 1019.01 1019.08 1019.17 1019.34 1019.57 1019.87 1020.21 1020.55 1020.87 1021.14 1021.36 1021.53 1021.67 1021.80 1021.94 1022.10 1022.30 1022.50 1022.71 1022.88 1023.00 1023.03 1022.98 1022.85 1022.65 1022.41 1022.16 1021.92 1021.71 1021.54 1021.40 1021.28 1021.15 1020.99 1020.78 1020.51 1020.17 1019.77 1019.33
1018.78 1019.19 1019.47 1019.66 1019.80 1019.94 1020.11 1020.34 1020.62 1020.95 1021.28 1021.60 1021.87 1022.08 1022.21 1022.29 1022.33 1022.37 1022.42 1022.50 1022.63 1022.78 1022.94 1023.09 1023.18 1023.20 1023.14 1022.99 1022.78 1022.51 1022.24 1021.97 1021.73 1021.53 1021.37 1021.23 1021.09 1020.93 1020.73 1020.46 1020.13 1019.73 1019.27
1019.51 1019.92 1020.21 1020.42 1020.59 1020.78 1020.99 1021.25 1021.55 1021.88 1022.19 1022.47 1022.68 1022.82 1022.88 1022.88 1022.83 1022.79 1022.77 1022.80 1022.88 1023.00 1023.14 1023.27 1023.37 1023.39 1023.33 1023.19 1022.96 1022.68 1022.38 1022.07 1021.79 1021.54 1021.34 1021.16 1020.99 1020.81 1020.58 1020.30 1019.95 1019.53 1019.06
1020.29 1020.68 1020.96 1021.17 1021.35 1021.53 1021.75 1022.01 1022.30 1022.60 1022.88 1023.11 1023.26 1023.34 1023.33 1023.27 1023.17 1023.08 1023.02 1023.02 1023.07 1023.18 1023.33 1023.47 1023.57 1023.61 1023.56 1023.42 1023.19 1022.90 1022.56 1022.21 1021.88 1021.57 1021.30 1021.07 1020.84 1020.61 1020.35 1020.03 1019.65 1019.21 1018.71
1021.06 1021.41 1021.65 1021.83 1021.99 1022.15 1022.34 1022.57 1022.82 1023.08 1023.31 1023.49 1023.59 1023.62 1023.58 1023.48 1023.36 1023.25 1023.19 1023.18 1023.24 1023.36 1023.51 1023.67 1023.79 1023.84 1023.81 1023.67 1023.43 1023.11 1022.74 1022.35 1021.96 1021.60 1021.26 1020.96 1020.67 1020.37 1020.05 1019.69 1019.28 1018.80 1018.28
1021.71 1022.01 1022.22 1022.36 1022.47 1022.59 1022.74 1022.92 1023.12 1023.32 1023.50 1023.64 1023.71 1023.72 1023.66 1023.56 1023.45 1023.36 1023.31 1023.32 1023.40 1023.54 1023.71 1023.88 1024.01 1024.07 1024.03 1023.89 1023.64 1023.30 1022.90 1022.47 1022.03 1021.60 1021.21 1020.83 1020.48 1020.13 1019.75 1019.34 1018.89 1018.38 1017.84
1022.19 1022.46 1022.62 1022.72 1022.80 1022.87 1022.97 1023.09 1023.24 1023.39 1023.53 1023.63 1023.68 1023.68 1023.64 1023.56 1023.48 1023.43 1023.41 1023.46 1023.57 1023.73 1023.90 1024.07 1024.20 1024.25 1024.21 1024.05 1023.79 1023.43 1023.01 1022.54 1022.06 1021.60 1021.15 1020.72 1020.31 1019.91 1019.49 1019.03 1018.55 1018.02 1017.46
1022.49 1022.73 1022.86 1022.94 1022.97 1023.01 1023.06 1023.14 1023.23 1023.34 1023.44 1023.52 1023.57 1023.58 1023.57 1023.53 1023.50 1023.50 1023.53 1023.62 1023.75 1023.91 1024.09 1024.25 1024.36 1024.39 1024.32 1024.14 1023.86 1023.49 1023.05 1022.57 1022.07 1021.58 1021.10 1020.64 1020.19 1019.74 1019.29 1018.80 1018.29 1017.74 1017.17
1022.64 1022.86 1022.98 1023.03 1023.05 1023.06 1023.08 1023.11 1023.17 1023.24 1023.32 1023.39 1023.44 1023.48 1023.50 1023.51 1023.54 1023.59 1023.67 1023.78 1023.93 1024.09 1024.26 1024.39 1024.46 1024.46 1024.36 1024.16 1023.87 1023.49 1023.05 1022.57 1022.07 1021.57 1021.08 1020.60 1020.13 1019.65 1019.16 1018.65 1018.11 1017.55 1016.98
1022.68 1022.89 1023.00 1023.06 1023.07 1023.06 1023.06 1023.07 1023.10 1023.14 1023.20 1023.26 1023.33 1023.38 1023.45 1023.51 1023.59 1023.68 1023.80 1023.94 1024.10 1024.26 1024.39 1024.49 1024.53 1024.49 1024.35 1024.14 1023.83 1023.45 1023.02 1022.55 1022.06 1021.57 1021.08 1020.59 1020.10 1019.61 1019.09 1018.55 1018.00 1017.43 1016.85
1022.67 1022.87 1023.00 1023.05 1023.07 1023.06 1023.04 1023.03 1023.04 1023.06 1023.10 1023.16 1023.23 1023.31 1023.40 1023.51 1023.64 1023.77 1023.93 1024.09 1024.24 1024.39 1024.50 1024.56 1024.56 1024.48 1024.32 1024.08 1023.77 1023.40 1022.98 1022.53 1022.06 1021.58 1021.10 1020.61 1020.10 1019.58 1019.04 1018.48 1017.90 1017.32 1016.74
1022.66 1022.86 1022.99 1023.06 1023.08 1023.07 1023.04 1023.01 1022.99 1022.99 1023.01 1023.06 1023.13 1023.23 1023.35 1023.49 1023.65 1023.83 1024.01 1024.19 1024.35 1024.49 1024.57 1024.61 1024.57 1024.46 1024.28 1024.03 1023.72 1023.36 1022.95 1022.52 1022.07 1021.60 1021.12 1020.62 1020.10 1019.56 1018.99 1018.40 1017.79 1017.18 1016.60
1022.70 1022.89 1023.02 1023.09 1023.12 1023.10 1023.05 1023.00 1022.96 1022.93 1022.92 1022.95 1023.02 1023.12 1023.26 1023.43 1023.62 1023.83 1024.04 1024.24 1024.42 1024.55 1024.63 1024.65 1024.60 1024.47 1024.28 1024.02 1023.70 1023.35 1022.96 1022.54 1022.09 1021.63 1021.14 1020.63 1020.08 1019.51 1018.90 1018.28 1017.64 1017.02 1016.42
Thickness
5817 5818 5816 5813 5807 5800 5793 5786 5779 5772 5764 5755 5746 5737 5729 5723 5716 5709 5704 5698 5691 5686 5682 5678 5674 5671 5669 5666 5663 5660 5657 5655 5654 5654 5653 5650 5648 5646 5644 5643 5642 5640 5637
5805 5806 5807 5807 5802 5796 5791 5785 5778 5771 5762 5754 5745 5737 5728 5719 5713 5707 5701 5695 5687 5680 5677 5671 5668 5665 5661 5658 5655 5652 5650 5648 5646 5646 5644 5642 5641 5636 5636 5633 5631 5629 5628
5791 5794 5796 5798 5797 5793 5789 5784 5777 5769 5760 5751 5741 5731 5722 5714 5707 5701 5696 5690 5681 5676 5670 5665 5662 5658 5655 5652 5648 5645 5642 5641 5638 5637 5637 5635 5636 5635 5630 5624 5621 5618 5616
5780 5782 5784 5785 5786 5787 5785 5780 5773 5765 5755 5746 5738 5729 5720 5712 5705 5698 5690 5682 5675 5669 5664 5661 5656 5653 5650 5645 5642 5639 5637 5634 5632 5628 5625 5623 5622 5618 5619 5616 5613 5608 5604
5762 5765 5768 5770 5772 5774 5774 5770 5764 5755 5748 5740 5733 5724 5716 5708 5699 5690 5683 5675 5669 5663 5658 5654 5649 5645 5642 5637 5633 5630 5627 5625 5622 5619 5614 5610 5606 5604 5603 5604 5602 5599 5596
5743 5746 5751 5754 5756 5759 5758 5755 5749 5742 5736 5729 5722 5715 5708 5699 5690 5682 5674 5667 5661 5655 5650 5645 5639 5635 5632 5627 5623 5619 5615 5612 5607 5604 5602 5598 5596 5594 5592 5590 5588 5586 5583
5724 5726 5729 5732 5735 5737 5737 5736 5732 5725 5721 5715 5709 5704 5697 5689 5681 5673 5665 5657 5651 5644 5638 5633 5628 5624 5619 5615 5611 5606 5602 5598 5593 5589 5587 5584 5582 5579 5576 5573 5573 5570 5569
5706 5707 5709 5712 5713 5714 5716 5715 5712 5708 5704 5699 5693 5688 5682 5677 5669 5662 5655 5647 5640 5633 5626 5621 5616 5611 5606 5601 5596 5592 5587 5582 5578 5575 5570 5568 5568 5564 5560 5557 5554 5554 5555
5689 5690 5691 5693 5695 5695 5696 5696 5694 5691 5687 5683 5678 5672 5667 5661 5654 5647 5641 5634 5627 5620 5613 5607 5602 5596 5591 5586 5581 5576 5571 5567 5564 5561 5556 5553 5552 5547 5544 5540 5537 5536 5538
5675 5674 5675 5676 5678 5679 5679 5679 5678 5675 5671 5667 5663 5657 5651 5645 5639 5632 5624 5618 5611 5604 5598 5591 5586 5580 5575 5570 5565 5560 5555 5551 5547 5543 5539 5535 5535 5532 5528 5525 5522 5519 5518
5661 5661 5661 5662 5663 5665 5665 5663 5661 5658 5654 5650 5645 5639 5634 5628 5622 5615 5608 5601 5594 5587 5581 5575 5569 5563 5557 5552 5548 5544 5539 5535 5532 5528 5525 5521 5516 5515 5512 5511 5508 5505 5502
5649 5648 5647 5648 5649 5649 5648 5646 5644 5640 5636 5631 5627 5622 5616 5610 5603 5596 5589 5583 5576 5570 5563 5557 5551 5545 5540 5534 5530 5526 5522 5519 5516 5512 5509 5506 5504 5500 5498 5496 5493 5490 5486
5638 5636 5635 5633 5632 5631 5629 5627 5624 5621 5617 5614 5609 5603 5597 5591 5584 5577 5570 5564 5557 5551 5545 5539 5533 5527 5522 5517 5513 5509 5506 5503 5500 5497 5494 5492 5489 5487 5485 5480 5478 5477 5474
5627 5624 5620 5617 5614 5613 5611 5608 5605 5602 5598 5593 5588 5582 5576 5570 5563 5557 5551 5545 5539 5533 5527 5521 5515 5510 5505 5501 5497 5494 5491 5488 5486 5483 5480 5479 5476 5473 5470 5468 5465 5463 5461
5614 5610 5606 5602 5598 5595 5591 5588 5585 5581 5577 5573 5568 5561 5555 5550 5544 5537 5531 5526 5520 5515 5509 5503 5499 5494 5490 5484 5479 5478 5478 5475 5473 5471 5469 5467 5463 5457 5454 5454 5453 5451 5450
5598 5593 5589 5585 5581 5577 5573 5570 5566 5562 5558 5554 5548 5542 5537 5531 5525 5520 5514 5508 5503 5497 5493 5488 5484 5480 5475 5464 5460 5458 5463 5463 5461 5460 5457 5455 5453 5450 5445 5442 5440 5438 5438
5582 5576 5571 5567 5564 5560 5557 5553 5549 5545 5540 5535 5530 5524 5519 5514 5509 5505 5499 5493 5487 5482 5478 5474 5469 5465 5457 5449 5446 5445 5446 5450 5449 5447 5445 5444 5444 5439 5438 5437 5435 5434 5433
5566 5560 5555 5551 5547 5544 5540 5537 5533 5528 5523 5518 5513 5509 5504 5499 5494 5489 5484 5478 5473 5469 5464 5459 5454 5450 5444 5436 5433 5432 5436 5439 5437 5435 5433 5432 5431 5430 5425 5426 5429 5432 5433
5550 5545 5541 5537 5533 5529 5526 5522 5518 5513 5509 5504 5499 5495 5491 5485 5480 5475 5469 5464 5459 5455 5450 5445 5440 5436 5431 5423 5420 5418 5425 5427 5426 5425 5424 5422 5421 5417 5415 5418 5424 5428 5431
5536 5532 5529 5525 5521 5516 5513 5510 5505 5501 5497 5492 5486 5481 5477 5472 5466 5460 5455 5450 5445 5441 5437 5431 5426 5422 5419 5411 5407 5404 5413 5414 5415 5416 5416 5414 5412 5410 5410 5415 5421 5425 5429
5523 5520 5517 5514 5509 5506 5503 5499 5494 5489 5484 5479 5474 5468 5463 5458 5452 5447 5442 5437 5433 5428 5424 5419 5415 5410 5405 5402 5397 5395 5398 5401 5404 5407 5409 5410 5406 5407 5408 5411 5417 5420 5421
5513 5511 5508 5504 5499 5495 5492 5488 5484 5478 5473 5468 5462 5456 5451 5447 5441 5435 5430 5425 5421 5417 5412 5407 5404 5400 5397 5392 5390 5388 5388 5389 5395 5400 5403 5405 5403 5405 5408 5412 5416 5418 5421
5506 5503 5500 5495 5491 5487 5484 5479 5473 5468 5463 5458 5451 5446 5440 5434 5429 5425 5420 5416 5411 5407 5402 5398 5394 5392 5390 5387 5385 5385 5386 5387 5391 5396 5397 5399 5403 5406 5411 5414 5417 5420 5426
5498 5495 5492 5488 5483 5479 5474 5469 5464 5458 5454 5448 5442 5436 5430 5425 5419 5414 5411 5406 5401 5397 5393 5389 5386 5384 5384 5383 5382 5382 5385 5387 5391 5395 5398 5400 5404 5408 5411 5416 5421 5424 5426
5491 5488 5485 5480 5475 5470 5465 5460 5455 5450 5445 5439 5433 5428 5423 5418 5411 5406 5399 5395 5389 5382 5380 5380 5379 5377 5378 5375 5372 5374 5379 5382 5387 5390 5397 5402 5406 5410 5414 5418 5422 5425 5427
5484 5480 5476 5472 5468 5463 5458 5452 5447 5441 5435 5431 5425 5421 5416 5411 5407 5401 5394 5382 5379 5374 5370 5368 5367 5371 5370 5370 5372 5374 5378 5381 5385 5391 5397 5400 5403 5407 5411 5417 5421 5424 5427